"Pseudo-MPEC" for P22l8RK

Created 2026 Feb 17 23:35:15 UT using Find_Orb

Click here for an explanation of pseudo-MPECs

 
 Astrometry: 
     P22l8RK*0C2026 01 28.59435012 16 52.370-19 28 51.81   ~29Bo 22.73wXNEOCPF52
     P22l8RK 0C2026 01 28.60554512 16 52.002-19 29 01.66   ~29Bo 22.07wXNEOCPF52
     P22l8RK 0C2026 01 28.61676512 16 51.596-19 29 12.27   ~29Bo 22.62wXNEOCPF52

Station data:
(F52) Pan-STARRS 2, Haleakala  (N20.707382 W156.255910)  US/Hawaii.
   Observers J. Herman, T. Lowe, P. Minguez, A. Schultz, I. Smith. Measurers
   K. Chambers, T. de Boer, J. Fairlamb, H. Gao, M. Huber, C.-C. Lin, E.
   Magnier, Y. Ramanjooloo, R. Wainscoat, R. Weryk. 1.8-m Ritchey-Chrétien +
   CCD.

Orbital elements:  P22l8RK
   Perihelion 2026 May 10.926903 +/- 160 TT = 22:14:44.4 (JD 2461171.426903)
Epoch 2026 Jan 29.0 TT = JDT 2461069.5   Earth MOID: 0.0586   Ve: 0.0482
M 286.651262850 +/- 70              Me: 0.0496   Ma: 0.0763      AutoNEOCP
n   0.719620973 +/- 0.623           Peri.   17.351960 +/- 90
a   1.233294630 +/- 0.712           Node   313.457779 +/- 80
e   0.92784881 +/- 0.25             Incl.   20.612447 +/- 38
P   1.370/500.254d         H 19.48  G  0.15   U 12.5  SR
q 0.088983674 +/- 0.966    Q 2.377605587 +/- 30.3         (J2000 ecliptic)
From 3 observations 2026 Jan. 28 (32.3 min); mean residual 0".15
Residuals in arcseconds: 
260128 F52  .09-  .13-    260128 F52  .17+  .25+    260128 F52  .09-  .12-    

Ephemerides (geocentric):
Date (UTC) HH   RA             Dec           delta  r     elong  mag " sig PA
---- --------  ------------   ------------  ------ ------ -----  --- --------
2026 02 18 00  11 47 47.663   -25 19 28.51  .74986 1.6091 135.1 21.1  60d  76
2026 02 18 01  11 47 40.882   -25 20 16.02  .74912 1.6087 135.2 21.1  60d  76
2026 02 18 02  11 47 34.083   -25 21 03.54  .74838 1.6082 135.2 21.1  60d  76
2026 02 18 03  11 47 27.265   -25 21 51.07  .74765 1.6078 135.2 21.1  60d  76
2026 02 18 04  11 47 20.429   -25 22 38.62  .74691 1.6074 135.3 21.1  60d  76
2026 02 18 05  11 47 13.574   -25 23 26.17  .74618 1.6069 135.3 21.1  60d  76
2026 02 18 06  11 47 06.701   -25 24 13.74  .74545 1.6065 135.3 21.0  60d  76
2026 02 18 07  11 46 59.809   -25 25 01.31  .74471 1.6061 135.4 21.0  60d  76
2026 02 18 08  11 46 52.899   -25 25 48.90  .74398 1.6056 135.4 21.0  60d  76
2026 02 18 09  11 46 45.970   -25 26 36.49  .74325 1.6052 135.5 21.0  60d  76
2026 02 18 10  11 46 39.023   -25 27 24.10  .74251 1.6047 135.5 21.0  60d  76
2026 02 18 11  11 46 32.057   -25 28 11.71  .74178 1.6043 135.5 21.0  60d  76
2026 02 18 12  11 46 25.072   -25 28 59.34  .74105 1.6039 135.6 21.0  60d  76
2026 02 18 13  11 46 18.068   -25 29 46.97  .74032 1.6034 135.6 21.0  60d  76
2026 02 18 14  11 46 11.045   -25 30 34.62  .73959 1.6030 135.7 21.0  60d  76
2026 02 18 15  11 46 04.004   -25 31 22.27  .73886 1.6026 135.7 21.0  60d  76
2026 02 18 16  11 45 56.944   -25 32 09.93  .73813 1.6021 135.7 21.0  60d  76
2026 02 18 17  11 45 49.864   -25 32 57.61  .73740 1.6017 135.8 21.0  60d  76
2026 02 18 18  11 45 42.766   -25 33 45.29  .73667 1.6013 135.8 21.0  60d  76
2026 02 18 19  11 45 35.649   -25 34 32.98  .73594 1.6008 135.9 21.0  60d  76
2026 02 18 20  11 45 28.512   -25 35 20.67  .73521 1.6004 135.9 21.0  60d  76
2026 02 18 21  11 45 21.357   -25 36 08.38  .73449 1.6000 135.9 21.0  60d  76
2026 02 18 22  11 45 14.182   -25 36 56.10  .73376 1.5995 136.0 21.0  60d  76
2026 02 18 23  11 45 06.988   -25 37 43.82  .73303 1.5991 136.0 21.0  60d  76
2026 02 19 00  11 44 59.775   -25 38 31.55  .73230 1.5986 136.0 21.0  60d  76
2026 02 19 01  11 44 52.542   -25 39 19.29  .73158 1.5982 136.1 21.0  60d  76
2026 02 19 02  11 44 45.290   -25 40 07.04  .73085 1.5978 136.1 21.0  60d  76
2026 02 19 03  11 44 38.019   -25 40 54.80  .73013 1.5973 136.2 21.0  60d  76
2026 02 19 04  11 44 30.728   -25 41 42.56  .72940 1.5969 136.2 21.0  60d  76
2026 02 19 05  11 44 23.418   -25 42 30.33  .72868 1.5964 136.2 21.0  60d  76
2026 02 19 06  11 44 16.088   -25 43 18.11  .72795 1.5960 136.3 21.0  60d  76
2026 02 19 07  11 44 08.739   -25 44 05.90  .72723 1.5956 136.3 21.0  60d  76
2026 02 19 08  11 44 01.370   -25 44 53.69  .72650 1.5951 136.3 21.0  60d  76
2026 02 19 09  11 43 53.982   -25 45 41.49  .72578 1.5947 136.4 21.0  60d  76
2026 02 19 10  11 43 46.574   -25 46 29.30  .72506 1.5942 136.4 21.0  60d  76
2026 02 19 11  11 43 39.146   -25 47 17.11  .72434 1.5938 136.5 21.0  60d  76
2026 02 19 12  11 43 31.698   -25 48 04.93  .72361 1.5934 136.5 21.0  60d  76
2026 02 19 13  11 43 24.230   -25 48 52.76  .72289 1.5929 136.5 21.0  60d  76
2026 02 19 14  11 43 16.743   -25 49 40.59  .72217 1.5925 136.6 20.9  60d  76
2026 02 19 15  11 43 09.236   -25 50 28.43  .72145 1.5920 136.6 20.9  60d  76
2026 02 19 16  11 43 01.708   -25 51 16.27  .72073 1.5916 136.7 20.9  60d  76
2026 02 19 17  11 42 54.161   -25 52 04.12  .72001 1.5912 136.7 20.9  60d  76
2026 02 19 18  11 42 46.594   -25 52 51.98  .71929 1.5907 136.7 20.9  60d  76
2026 02 19 19  11 42 39.006   -25 53 39.84  .71857 1.5903 136.8 20.9  60d  76
2026 02 19 20  11 42 31.399   -25 54 27.71  .71785 1.5898 136.8 20.9  60d  76
2026 02 19 21  11 42 23.771   -25 55 15.58  .71714 1.5894 136.8 20.9  60d  76
2026 02 19 22  11 42 16.123   -25 56 03.46  .71642 1.5890 136.9 20.9  60d  76
2026 02 19 23  11 42 08.455   -25 56 51.34  .71570 1.5885 136.9 20.9  60d  76